Terminal Aerodrome Forecast
Issued by NWS Austin/San Antonio, TX

Home | Current Version | Previous Version | Text Only | Print | Product List | Glossary On
Versions: 1 2 3 4 5 6 7 8 9 10 11 12 13 14 15 16 17 18 19 20 21 22 23 24
000
FTUS44 KEWX 131200 AAB
TAFSAT
TAF AMD
KSAT 131254Z 1313/1418 VRB03KT P6SM FEW014
     FM131500 15008KT P6SM SCT050
     FM140900 19005KT P6SM SCT040=

USA.gov is the U.S. government's official web portal to all federal, state and local government web resources and services.